Stations météo

réclame
Mon MeteoGroup
Leck, Allemagne (10022): Température de l'air & dewpoint: 13.10.2017 09:00:00 - 19.10.2017 09:00:00 (CEST)Leck, Allemagne (10022): Température de l'air 5cm & Température de l'air -5cm: 13.10.2017 09:00:00 - 19.10.2017 09:00:00 (CEST)Leck, Allemagne (10022): Température de l'air -20cm & Température de l'air -100cm: 13.10.2017 09:00:00 - 19.10.2017 09:00:00 (CEST)Leck, Allemagne (10022): Vitesse du vent & gusts: 13.10.2017 09:00:00 - 19.10.2017 09:00:00 (CEST)Leck, Allemagne (10022): Direction du vent: 13.10.2017 09:00:00 - 19.10.2017 09:00:00 (CEST)Leck, Allemagne (10022): reduced air pressure: 13.10.2017 09:00:00 - 19.10.2017 09:00:00 (CEST)Leck, Allemagne (10022): visibility: 13.10.2017 09:00:00 - 19.10.2017 09:00:00 (CEST)Leck, Allemagne (10022): Ensoleillement: 13.10.2017 09:00:00 - 19.10.2017 09:00:00 (CEST)Leck, Allemagne (10022): Quantités de précipitations: 13.10.2017 09:00:00 - 19.10.2017 09:00:00 (CEST)
Date & Time tt [°C] td [°C] tt 5cm [°C] tt -5cm [°C] tt -20cm [°C] tt -100cm [°C] ff [km/h] ff [knt] fx [km/h] fx [knt] dd ppp [hPa] vv [km] sd [min] rr [mm]
19.10.2017 09:00:00 12,2 11,3 11,4 12,1 12,9 13,4 15 8 20 11 SE 1013,7 9 0 0,0
19.10.2017 08:00:00 12,1 11,3 11,3 12,2 13,0 13,4 14 7 20 11 SE 1013,7 8 0 0,1
19.10.2017 07:00:00 12,1 11,2 11,6 12,2 13,0 13,4 9 5 21 12 SE 1013,9 9 0 0,0
19.10.2017 06:00:00 12,0 11,4 11,2 12,3 13,1 13,4 15 8 19 10 E 1013,8 8 0 0,0
19.10.2017 05:00:00 12,2 11,4 11,5 12,5 13,1 13,4 14 7 21 11 ESE 1014,2 11 0 0,0
19.10.2017 04:00:00 12,5 11,8 11,8 12,6 13,2 13,4 14 8 19 11 ESE 1014,2 10 0 0,0
19.10.2017 03:00:00 12,3 11,8 11,7 12,7 13,2 13,4 16 9 20 11 E 1014,4 8 0 0,0
19.10.2017 02:00:00 12,4 11,7 11,8 12,7 13,3 13,4 10 5 13 7 ENE 1014,9 11 0 0,0
19.10.2017 01:00:00 12,3 11,7 11,8 12,8 13,4 13,5 4 2 10 6 NE 1015,0 13 0 0,0
19.10.2017 00:00:00 12,3 12,0 11,8 12,9 13,4 13,5 8 5 11 6 ESE 1014,8 9 0 0,0
18.10.2017 23:00:00 12,3 11,8 11,8 13,0 13,5 13,5 9 5 14 7 E 1015,1 11 0 0,1
18.10.2017 22:00:00 12,5 11,6 12,0 13,1 13,6 13,5 8 4 10 5 E 1015,0 10 0 0,0
18.10.2017 21:00:00 12,5 11,4 12,0 13,3 13,6 13,5 8 4 16 9 NE 1014,9 19 0 0,0
18.10.2017 20:00:00 12,8 11,5 12,3 13,7 13,7 13,5 9 5 13 7 NE 1014,8 19 0 0,0
18.10.2017 19:00:00 13,4 11,6 12,7 14,1 13,7 13,5 6 4 9 5 NE 1014,8 20 0 0,0
18.10.2017 18:00:00 14,1 11,6 13,7 14,6 13,6 13,5 4 2 6 3 NNW 1014,6 25 0 0,0
18.10.2017 17:00:00 14,5 10,8 14,3 15,1 13,5 13,5 4 2 10 5 WNW 1014,6 29 0 0,0
18.10.2017 16:00:00 14,8 10,4 15,6 15,6 13,3 13,5 6 3 13 7 WNW 1014,5 21 0 0,0
18.10.2017 15:00:00 15,3 10,5 17,4 15,5 13,0 13,5 6 4 13 7 WNW 1014,8 26 3 0,0
18.10.2017 14:00:00 14,9 10,6 16,3 14,9 12,8 13,5 8 4 16 8 WNW 1014,9 28 4 0,0
18.10.2017 13:00:00 14,7 10,9 16,1 14,1 12,6 13,5 9 5 15 8 WNW 1015,1 22 0 0,0
18.10.2017 12:00:00 14,5 11,4 15,1 13,4 12,4 13,5 9 5 16 9 W 1015,1 22 1 0,0
18.10.2017 11:00:00 14,1 11,2 14,6 12,6 12,3 13,5 9 5 14 8 W 1015,0 23 12 0,0
18.10.2017 10:00:00 13,4 10,8 13,9 11,6 12,2 13,5 9 5 13 7 W 1014,9 21 8 0,0
18.10.2017 09:00:00 12,4 10,5 11,5 11,0 12,3 13,5 9 5 16 9 W 1014,7 21 0 0,0
18.10.2017 08:00:00 11,9 9,8 10,4 10,8 12,3 13,5 9 5 18 10 W 1014,4 20 0 0,0
18.10.2017 07:00:00 12,0 9,7 10,7 10,6 12,4 13,5 11 6 17 9 W 1014,4 19 0 0,0
18.10.2017 06:00:00 11,6 9,4 9,5 10,7 12,5 13,5 10 6 18 10 W 1014,4 20 0 0,0
18.10.2017 05:00:00 12,0 9,4 10,2 10,9 12,6 13,5 13 7 24 13 W 1014,4 19 0 0,0
18.10.2017 04:00:00 12,5 9,6 10,9 11,1 12,7 13,5 16 8 26 14 W 1014,4 20 0 0,0
18.10.2017 03:00:00 12,8 9,3 11,7 11,1 12,8 13,5 18 10 28 15 W 1014,6 21 0 0,0
18.10.2017 02:00:00 12,6 9,5 10,7 11,3 12,9 13,4 16 9 28 15 W 1014,6 19 0 0,0
18.10.2017 01:00:00 12,7 9,6 11,2 11,4 13,1 13,4 20 11 31 17 W 1014,8 18 0 0,0
18.10.2017 00:00:00 12,9 9,5 11,2 11,6 13,2 13,4 21 11 31 17 W 1014,9 18 0 0,0
17.10.2017 23:00:00 12,7 9,5 11,0 11,7 13,3 13,4 18 10 34 18 W 1015,2 17 0 0,0
17.10.2017 22:00:00 13,1 9,7 11,6 12,0 13,4 13,4 22 12 35 19 W 1015,0 17 0 0,0
17.10.2017 21:00:00 13,2 9,7 11,7 12,3 13,6 13,4 23 13 34 18 W 1015,1 16 0 0,0
17.10.2017 20:00:00 13,1 9,8 11,6 12,5 13,7 13,4 20 11 39 21 W 1015,3 16 0 0,0
17.10.2017 19:00:00 13,5 10,0 12,5 13,1 13,8 13,4 24 13 40 22 W 1015,4 15 0 0,0
17.10.2017 18:00:00 13,8 10,4 13,1 13,5 13,8 13,4 23 12 49 26 W 1015,3 15 2 0,0
17.10.2017 17:00:00 14,2 10,6 13,8 14,0 13,8 13,4 25 14 56 30 W 1015,5 15 29 0,0
17.10.2017 16:00:00 14,8 10,5 15,0 14,5 13,8 13,4 30 16 56 30 W 1015,8 11 36 0,0
17.10.2017 15:00:00 15,2 10,3 16,2 14,7 13,7 13,4 31 17 51 28 W 1016,4 10 47 0,0
17.10.2017 14:00:00 15,3 12,3 16,6 14,4 13,6 13,4 26 14 50 27 W 1016,6 13 25 0,0
17.10.2017 13:00:00 15,0 10,9 15,4 14,0 13,5 13,4 28 15 54 29 W 1016,9 11 25 0,0
17.10.2017 12:00:00 14,6 10,6 14,6 13,7 13,5 13,4 28 15 47 26 W 1017,1 14 0 0,0
17.10.2017 11:00:00 14,4 11,1 14,2 13,3 13,5 13,4 24 13 37 20 W 1016,9 13 0 0,0
17.10.2017 10:00:00 14,0 11,1 13,0 12,9 13,5 13,4 23 12 36 20 W 1017,0 12 0 0,0
17.10.2017 09:00:00 13,9 12,4 12,8 13,0 13,6 13,4 16 9 30 16 W 1016,9 9 0 0,0
17.10.2017 08:00:00 14,1 12,3 13,0 12,8 13,7 13,4 17 9 32 17 W 1016,4 10 0 0,0
17.10.2017 07:00:00 14,1 12,1 12,5 12,9 13,8 13,4 16 9 36 19 W 1016,4 13 0 0,0
17.10.2017 06:00:00 14,9 12,7 13,4 13,3 13,8 13,4 20 11 36 19 W 1016,2 12 0 0,0
17.10.2017 05:00:00 15,2 13,7 13,7 13,6 13,9 13,4 18 10 32 17 W 1016,3 8 0 0,0
17.10.2017 04:00:00 15,7 14,2 14,0 13,8 13,9 13,4 16 9 29 16 W 1016,6 7 0 0,0
17.10.2017 03:00:00 16,2 14,2 14,5 14,0 13,9 13,4 18 10 35 19 W 1016,9 7 0 0,0
17.10.2017 02:00:00 17,5 14,5 15,9 14,1 13,9 13,4 22 12 34 18 W 1016,9 9 0 0,0
17.10.2017 01:00:00 17,8 14,8 15,7 14,0 13,9 13,4 16 9 27 15 WSW 1016,9 8 0 0,0
17.10.2017 00:00:00 17,6 14,9 15,6 13,7 14,0 13,4 16 9 27 15 SW 1017,0 8 0 0,0
16.10.2017 23:00:00 16,8 14,7 14,9 13,7 14,0 13,4 10 5 19 10 SSW 1017,3 6 0 0,0
16.10.2017 22:00:00 16,3 14,7 14,4 13,7 14,1 13,3 13 7 20 11 SSW 1017,3 5 0 0,0
16.10.2017 21:00:00 16,2 14,9 14,1 13,8 14,2 13,3 10 5 17 9 SSW 1017,9 4,8 0 0,0
16.10.2017 20:00:00 14,6 14,2 12,6 13,8 14,3 13,3 7 4 11 6 SSW 1018,4 3,4 0 0,0
16.10.2017 19:00:00 15,3 14,5 13,3 14,6 14,4 13,3 7 4 15 8 SSW 1018,7 3,9 0 0,0
16.10.2017 18:00:00 15,8 14,4 14,4 15,4 14,3 13,3 9 5 15 8 WSW 1018,8 4,8 0 0,0
16.10.2017 17:00:00 16,4 14,3 16,5 15,8 14,2 13,3 11 6 19 11 SW 1019,0 5 0 0,0
16.10.2017 16:00:00 16,1 14,2 16,6 15,8 14,1 13,3 13 7 21 11 WSW 1019,1 4,5 0 0,0
16.10.2017 15:00:00 15,6 14,1 16,4 15,7 14,0 13,3 8 5 18 10 W 1019,6 3,6 0 0,0
16.10.2017 14:00:00 15,5 13,9 16,5 15,4 13,8 13,3 13 7 18 10 WSW 1019,8 3,8 0 0,0
16.10.2017 13:00:00 14,6 14,3 15,3 14,9 13,7 13,3 8 5 16 9 W 1019,9 2,2 0 0,0
16.10.2017 12:00:00 14,4 14,2 14,7 14,5 13,6 13,3 13 7 24 13 W 1019,9 2,7 0 0,0
16.10.2017 11:00:00 15,2 14,2 15,0 14,3 13,6 13,3 13 7 20 11 W 1019,5 3,8 0 0,0
16.10.2017 10:00:00 15,0 14,1 15,0 13,9 13,5 13,3 10 5 19 11 W 1018,9 3,7 0 0,0
16.10.2017 09:00:00 14,9 14,0 14,5 13,6 13,5 13,3 9 5 16 9 W 1018,5 3,5 0 0,0
16.10.2017 08:00:00 14,9 13,9 14,3 13,4 13,5 13,3 5 3 18 10 W 1018,2 3,7 0 0,0
16.10.2017 07:00:00 14,6 13,9 14,0 13,2 13,5 13,3 11 6 18 10 W 1017,9 3,2 0 0,0
16.10.2017 06:00:00 14,0 13,4 13,3 12,9 13,6 13,3 11 6 15 8 W 1017,8 2,9 0 0,0
16.10.2017 05:00:00 13,5 13,1 12,9 12,5 13,7 13,3 8 4 11 6 W 1017,8 2,8 0 0,0
16.10.2017 04:00:00 13,2 12,6 10,7 12,6 13,8 13,3 8 4 21 11 W 1017,8 3,0 0 0,0
16.10.2017 03:00:00 14,2 13,1 12,3 12,9 14,0 13,2 13 7 24 13 W 1018,1 4,7 0 0,0
16.10.2017 02:00:00 14,6 13,0 12,7 13,3 14,1 13,2 12 6 29 15 W 1018,3 6 0 0,0
16.10.2017 01:00:00 15,2 13,1 13,5 13,5 14,2 13,2 16 9 31 17 W 1018,2 8 0 0,0
16.10.2017 00:00:00 16,1 13,3 14,2 13,7 14,3 13,2 18 10 35 19 W 1018,4 11 0 0,0
15.10.2017 23:00:00 16,7 13,4 14,7 13,8 14,4 13,2 20 11 34 18 WSW 1018,3 13 0 0,0
15.10.2017 22:00:00 16,3 13,5 14,3 14,0 14,6 13,2 19 10 29 16 SW 1018,2 13 0 0,0
15.10.2017 21:00:00 15,8 13,5 13,6 14,3 14,7 13,2 14 8 21 12 SW 1018,4 12 0 0,0
15.10.2017 20:00:00 16,2 14,1 14,0 14,8 14,8 13,2 14 8 18 10 SW 1018,7 10 0 0,0
15.10.2017 19:00:00 16,4 14,4 14,3 15,5 14,9 13,2 13 7 22 12 SW 1019,2 7 0 0,0
15.10.2017 18:00:00 17,6 14,9 16,1 16,5 14,9 13,2 15 8 29 16 WSW 1019,4 8 52 0,0
15.10.2017 17:00:00 18,8 15,7 18,8 17,1 14,7 13,2 14 8 29 16 WSW 1019,7 6 60 0,0
15.10.2017 16:00:00 19,2 15,1 20,0 17,7 14,5 13,2 17 9 31 17 WSW 1020,2 7 60 0,0
15.10.2017 15:00:00 19,1 14,9 20,2 17,6 14,3 13,2 17 9 29 15 WSW 1020,8 7 56 0,0
15.10.2017 14:00:00 17,9 14,5 18,9 17,1 14,0 13,2 17 9 24 13 WSW 1021,5 7 0 0,0
15.10.2017 13:00:00 17,5 14,4 18,6 16,8 13,8 13,2 15 8 24 13 WSW 1022,2 9 42 0,0
15.10.2017 12:00:00 16,4 14,2 18,2 15,6 13,6 13,2 14 8 33 18 WSW 1022,4 6 43 0,0
15.10.2017 11:00:00 14,5 14,0 14,9 14,6 13,5 13,2 14 8 23 12 WSW 1022,7 3,5 6 0,0
15.10.2017 10:00:00 13,8 13,8 14,2 13,9 13,5 13,2 15 8 22 12 SW 1022,7 2,0 0 0,0
15.10.2017 09:00:00 13,7 13,7 13,7 13,6 13,5 13,2 13 7 19 11 SW 1022,9 0,3 0 0,0
15.10.2017 08:00:00 13,5 13,5 13,4 13,5 13,6 13,2 9 5 14 8 WSW 1023,1 0,2 0 0,0
15.10.2017 07:00:00 13,6 13,6 13,4 13,5 13,6 13,2 11 6 19 10 W 1023,3 0,2 0 0,0
15.10.2017 06:00:00 13,8 13,8 13,1 13,4 13,7 13,1 8 4 22 12 W 1023,0 1,8 0 0,0
15.10.2017 05:00:00 14,1 13,8 13,1 13,5 13,8 13,1 13 7 24 13 W 1023,0 4,2 0 0,0
15.10.2017 04:00:00 14,7 14,3 13,7 13,9 13,8 13,1 14 8 23 13 W 1023,0 5 0 0,0
15.10.2017 03:00:00 15,0 14,5 14,3 14,2 13,8 13,1 16 8 30 16 W 1023,0 6 0 0,0
15.10.2017 02:00:00 15,1 14,5 14,6 14,3 13,8 13,1 16 9 30 16 W 1023,0 6 0 0,0
15.10.2017 01:00:00 15,1 14,6 14,6 14,3 13,8 13,1 18 10 34 18 W 1022,9 7 0 0,0
15.10.2017 00:00:00 15,1 14,5 14,5 14,3 13,8 13,1 19 11 33 18 W 1022,7 7 0 0,0
14.10.2017 23:00:00 15,1 14,6 14,6 14,4 13,8 13,1 18 10 31 17 W 1022,8 5 0 0,0
14.10.2017 22:00:00 15,1 14,6 14,6 14,4 13,8 13,1 16 9 31 17 W 1023,0 5 0 0,0
14.10.2017 21:00:00 15,0 14,7 14,6 14,4 13,8 13,1 18 10 30 16 W 1022,8 4,8 0 0,0
14.10.2017 20:00:00 15,1 14,8 14,6 14,5 13,8 13,1 18 10 33 18 W 1022,8 2,7 0 0,0
14.10.2017 19:00:00 15,2 14,6 14,7 14,6 13,8 13,1 19 11 32 17 W 1022,3 4,1 0 0,0
14.10.2017 18:00:00 15,2 14,6 14,8 14,8 13,8 13,1 16 8 36 19 W 1021,7 7 0 0,0
14.10.2017 17:00:00 15,6 14,7 15,4 15,0 13,7 13,1 23 13 37 20 W 1021,6 7 0 0,0
14.10.2017 16:00:00 15,6 14,6 15,5 15,0 13,7 13,1 19 11 39 21 W 1021,5 8 0 0,0
14.10.2017 15:00:00 15,8 14,8 15,8 15,0 13,6 13,1 25 13 36 19 W 1021,3 9 0 0,0
14.10.2017 14:00:00 15,9 14,9 16,0 14,9 13,5 13,1 23 12 36 19 W 1021,2 9 0 0,0
14.10.2017 13:00:00 15,5 14,9 15,4 14,7 13,4 13,1 20 11 35 19 W 1021,3 8 0 0,0
14.10.2017 12:00:00 15,4 15,0 15,1 14,5 13,4 13,1 20 11 32 17 W 1021,0 4,7 0 0,0
14.10.2017 11:00:00 15,4 14,7 15,0 14,3 13,3 13,1 20 11 31 17 W 1020,6 7 0 0,0
14.10.2017 10:00:00 15,3 14,7 14,8 14,1 13,3 13,1 22 12 39 21 W 1020,2 4,0 0 0,0
14.10.2017 09:00:00 15,2 14,5 14,9 14,0 13,2 13,1 23 13 40 22 W 1019,6 8 0 0,0
14.10.2017 08:00:00 15,3 14,6 14,9 14,0 13,2 13,1 24 13 43 23 W 1019,5 9 0 0,0
14.10.2017 07:00:00 15,2 14,5 14,8 14,0 13,2 13,1 26 14 42 23 W 1019,3 9 0 0,0
14.10.2017 06:00:00 15,4 14,6 15,0 14,0 13,1 13,1 24 13 39 21 W 1019,3 10 0 0,0
14.10.2017 05:00:00 15,2 14,5 14,8 13,9 13,1 13,1 23 12 39 21 W 1019,5 9 0 0,0
14.10.2017 04:00:00 15,2 14,5 14,8 13,9 13,0 13,1 23 12 36 20 W 1019,5 9 0 0,0
14.10.2017 03:00:00 15,3 14,5 14,9 13,8 13,0 13,1 24 13 39 21 W 1019,7 11 0 0,0
14.10.2017 02:00:00 15,2 14,5 14,8 13,8 12,9 13,1 28 15 43 23 W 1019,5 9 0 0,0
14.10.2017 01:00:00 14,9 14,5 14,4 13,7 12,9 13,1 23 13 36 19 W 1019,2 7 0 0,0
14.10.2017 00:00:00 15,0 14,4 14,4 13,7 12,9 13,1 21 11 41 22 W 1019,5 6 0 0,0
13.10.2017 23:00:00 15,0 14,3 14,6 13,6 12,8 13,1 22 12 34 18 W 1019,6 9 0 0,0
13.10.2017 22:00:00 14,8 14,3 14,4 13,5 12,8 13,1 18 10 46 25 W 1019,7 8 0 0,0
13.10.2017 21:00:00 14,8 14,4 14,4 13,5 12,7 13,1 25 14 39 21 W 1019,8 9 0 0,0
13.10.2017 20:00:00 14,6 14,2 14,0 13,4 12,6 13,1 23 12 40 21 W 1020,2 3,8 0 0,0
13.10.2017 19:00:00 14,7 14,0 14,0 13,4 12,6 13,1 27 15 43 23 W 1020,1 11 0 0,0
13.10.2017 18:00:00 14,7 13,7 14,2 13,4 12,5 13,1 18 10 34 18 W 1020,2 5 0 0,0
13.10.2017 17:00:00 14,3 13,2 13,9 13,4 12,5 13,1 18 10 34 18 W 1020,2 7 0 0,0
13.10.2017 16:00:00 14,1 12,5 13,9 13,6 12,3 13,1 21 11 35 19 W 1020,5 12 0 0,0
13.10.2017 15:00:00 14,2 12,2 14,4 13,8 12,1 13,1 21 11 37 20 W 1020,3 13 0 0,0
13.10.2017 14:00:00 14,3 12,1 14,9 14,0 11,9 13,1 22 12 37 20 W 1020,6 14 2 0,0
13.10.2017 13:00:00 14,3 12,1 14,9 13,5 11,6 13,1 23 13 35 19 W 1020,6 18 5 0,0
13.10.2017 12:00:00 14,5 12,9 15,2 13,0 11,4 13,1 18 10 36 20 W 1020,5 15 26 0,0
13.10.2017 11:00:00 14,1 13,1 14,4 11,7 11,2 13,1 16 8 31 17 W 1020,2 13 1 0,0
13.10.2017 10:00:00 13,0 12,5 12,7 10,5 11,2 13,2 16 9 26 14 W 1019,8 8 0 0,1
13.10.2017 09:00:00 11,4 11,1 10,5 9,1 11,3 13,2 13 7 18 10 WSW 1020,0 11 0 0,0

tt = Température de l'air
td = dewpoint
tt 5cm = Température de l'air 5cm
tt -5cm = Température de l'air -5cm
tt -20cm = Température de l'air -20cm
tt -100cm = Température de l'air -100cm
ff = Vitesse du vent
fx = gusts
dd = Direction du vent
ppp = reduced air pressure
vv = visibility
sd = Ensoleillement
rr = Quantités de précipitations

stations d'obs. à proximité